TimeEDT,TemperatureF,Dew PointF,Humidity,Sea Level PressureIn,VisibilityMPH,Wind Direction,Wind SpeedMPH,Gust SpeedMPH,PrecipitationIn,Events,Conditions,WindDirDegrees,DateUTC
12:54 AM,53.1,51.1,93,29.96,10.0,Variable,3.5,-,N/A,,Partly Cloudy,0,2008-05-04 04:54:00
1:54 AM,52.0,51.1,97,29.96,7.0,Calm,Calm,-,N/A,,Mostly Cloudy,0,2008-05-04 05:54:00
2:54 AM,50.0,48.9,96,29.96,8.0,Calm,Calm,-,N/A,,Mostly Cloudy,0,2008-05-04 06:54:00
3:54 AM,53.1,52.0,96,29.97,7.0,NNW,5.8,-,0.00,,Overcast,340,2008-05-04 07:54:00
4:54 AM,52.0,51.1,97,29.98,8.0,West,3.5,-,N/A,,Mostly Cloudy,280,2008-05-04 08:54:00
5:54 AM,54.0,51.1,90,29.99,10.0,North,8.1,-,N/A,,Partly Cloudy,350,2008-05-04 09:54:00
6:54 AM,52.0,50.0,93,30.00,10.0,NNW,3.5,-,N/A,,Clear,340,2008-05-04 10:54:00
7:54 AM,55.0,48.9,80,30.01,10.0,North,9.2,-,N/A,,Clear,350,2008-05-04 11:54:00
8:54 AM,57.9,50.0,75,30.02,10.0,Variable,6.9,-,N/A,,Clear,0,2008-05-04 12:54:00
9:54 AM,60.1,48.9,67,30.03,10.0,North,10.4,-,N/A,,Clear,350,2008-05-04 13:54:00
10:54 AM,63.0,48.9,60,30.03,10.0,NNW,9.2,-,N/A,,Clear,340,2008-05-04 14:54:00
11:54 AM,66.9,48.9,52,30.02,10.0,North,5.8,-,N/A,,Clear,350,2008-05-04 15:54:00
12:54 PM,70.0,43.0,38,30.00,10.0,North,10.4,-,N/A,,Clear,10,2008-05-04 16:54:00
1:54 PM,72.0,44.1,37,29.98,10.0,NNW,8.1,-,N/A,,Clear,330,2008-05-04 17:54:00
2:54 PM,73.0,41.0,31,29.96,10.0,NW,8.1,-,N/A,,Scattered Clouds,310,2008-05-04 18:54:00
3:54 PM,73.9,42.1,32,29.95,10.0,North,9.2,-,N/A,,Scattered Clouds,360,2008-05-04 19:54:00
4:54 PM,75.0,44.1,33,29.93,10.0,WNW,8.1,-,N/A,,Partly Cloudy,300,2008-05-04 20:54:00
5:54 PM,73.0,41.0,31,29.93,10.0,NNW,12.7,-,N/A,,Clear,330,2008-05-04 21:54:00
6:54 PM,70.0,39.0,32,29.95,10.0,North,12.7,-,N/A,,Clear,350,2008-05-04 22:54:00
7:54 PM,66.9,39.0,36,29.96,10.0,North,10.4,-,N/A,,Overcast,350,2008-05-04 23:54:00
8:54 PM,64.9,39.0,39,29.99,10.0,North,15.0,20.7,0.00,,Overcast,350,2008-05-05 00:54:00
9:54 PM,63.0,39.0,41,30.00,10.0,NNW,10.4,-,N/A,,Mostly Cloudy,340,2008-05-05 01:54:00
10:54 PM,61.0,39.0,44,30.01,10.0,North,6.9,-,N/A,,Clear,350,2008-05-05 02:54:00
11:54 PM,60.1,37.9,44,30.00,10.0,North,8.1,-,N/A,,Mostly Cloudy,350,2008-05-05 03:54:00